Regional Weather Roundup
Issued by NWS Cleveland, OH

Home | Current Version | Previous Version | Graphics & Text | Print | Product List | Glossary On
Versions: 1 2 3 4 5 6 7 8 9 10 11 12 13 14 15 16 17 18 19 20 21 22 23 24 25 26 27 28 29 30 31 32 33 34 35 36 37 38 39 40 41 42 43 44 45 46 47 48 49 50
000
ASUS41 KCLE 220502
RWRCLE
OHIO REGIONAL WEATHER ROUNDUP
NATIONAL WEATHER SERVICE CLEVELAND, OH
100 AM EDT MON SEP 22 2014

NOTE: "FAIR" INDICATES FEW OR NO CLOUDS BELOW 12,000 FEET WITH NO
SIGNIFICANT WEATHER AND/OR OBSTRUCTIONS TO VISIBILITY.

OHZ001>008-015>018-024>027-034-035-043-044-220600-
   NORTHWEST OHIO

CITY           SKY/WX    TMP DP  RH WIND       PRES   REMARKS
DEFIANCE       PTCLDY   N/A N/A N/A NW13G18   30.06R
FINDLAY        CLOUDY    56  48  74 NW6       30.02S
TOLEDO EXPRESS CLOUDY    50  45  83 N8        30.04S
TOLEDO EXEC    CLOUDY    52  44  74 NW10      30.04R
LIMA           CLOUDY    55  48  77 NW12      30.05R
$$

OHZ009>014-019>023-028>033-038-089-220600-
   NORTHEAST OHIO

CITY           SKY/WX    TMP DP  RH WIND       PRES   REMARKS
CLE-HOPKINS    CLOUDY    55  48  77 NW17G28   29.98S
CLE-LAKEFRONT  CLOUDY    58  49  72 NW21G29   29.93S
CUY CO. ARPT   NOT AVBL
LORAIN-ELYRIA  LGT RAIN  57  49  74 NW10      29.99R
ASHTABULA      LGT RAIN  54  48  80 NW10G23   29.91R
AKRON-CANTON   CLOUDY    53  48  83 NW14      29.95R
WOOSTER        CLOUDY    53  50  89 N10       29.98R
MANSFIELD      LGT RAIN  51  50  96 NW8       30.00R
YOUNGSTOWN     CLOUDY    53  49  86 NW10      29.92R
$$

OHZ042-051>053-060>062-070>072-077>081-220600-
  SOUTHWEST OHIO

CITY           SKY/WX    TMP DP  RH WIND       PRES   REMARKS
CINC-COVINGTON CLEAR     56  48  74 NW9       30.07S
CINC-LUNKEN    CLEAR     57  48  72 N10       30.08R
HAMILTON       CLEAR     53  48  83 NW6       30.08S
DAYTON         PTCLDY    53  48  83 NW12      30.06S
WRIGHT-PAT AFB CLEAR     55  48  80 NW10      30.05R
DAYTON GENERAL CLEAR     54  48  80 N9        30.05R
WILMINGTON     CLEAR     54  47  77 NW9       30.03S
$$

OHZ036-037-039>041-045>050-054>059-063>069-073>076-082>088-220600-
  CENTRAL AND SOUTHEAST OHIO

CITY           SKY/WX    TMP DP  RH WIND       PRES   REMARKS
COLUMBUS       CLOUDY    58  46  64 NW13G24   30.01R
OSU AIRPORT    CLOUDY    54  50  86 NW12      30.02S
BOLTON FIELD   CLOUDY    55  50  85 NW18G24   30.03R
RICKENBACK AFB MOCLDY    55  47  74 N10G22    30.01S
NEWARK         MOCLDY    54  48  80 NW14G24   30.00R
MARION         CLOUDY    53  48  83 NW9       30.03R
LANCASTER      MOCLDY    56  48  74 NW8G21    30.01R
ZANESVILLE     CLOUDY    56  51  84 NW14      29.97R HAZE
NEW PHILLY     CLOUDY    56  51  84 NW10G20   29.96R
$$



USA.gov is the U.S. government's official web portal to all federal, state and local government web resources and services.